QPF
0.02 0.02 0.02 0.02 0.03 0.04 0.05 0.05 0.06 0.09 0.10 0.09 0.07 0.06 0.04 0.04 0.04 0.03 0.03 0.02 0.02 0.01 0.01 0.02 0.02 0.02 0.03 0.03 0.03 0.03 0.04 0.03 0.03 0.01 0.01 0.02 0.03 0.04 0.05 0.06 0.06 0.07 0.09
0.02 0.02 0.02 0.02 0.02 0.02 0.03 0.04 0.05 0.07 0.09 0.09 0.08 0.07 0.06 0.05 0.04 0.03 0.03 0.02 0.02 0.02 0.02 0.02 0.02 0.03 0.03 0.03 0.04 0.04 0.04 0.04 0.04 0.03 0.02 0.02 0.03 0.05 0.06 0.08 0.08 0.08 0.08
0.02 0.02 0.03 0.02 0.02 0.02 0.02 0.03 0.04 0.05 0.06 0.07 0.08 0.08 0.07 0.05 0.04 0.03 0.02 0.02 0.02 0.02 0.02 0.02 0.02 0.02 0.03 0.03 0.04 0.04 0.05 0.05 0.05 0.04 0.03 0.03 0.04 0.06 0.07 0.08 0.09 0.08 0.08
0.02 0.02 0.03 0.02 0.02 0.02 0.02 0.02 0.03 0.03 0.04 0.04 0.04 0.05 0.06 0.05 0.04 0.04 0.03 0.02 0.02 0.01 0.01 0.01 0.01 0.02 0.02 0.03 0.03 0.04 0.04 0.04 0.04 0.04 0.04 0.04 0.04 0.05 0.07 0.09 0.10 0.09 0.08
0.02 0.02 0.02 0.02 0.01 0.01 0.02 0.02 0.02 0.02 0.02 0.03 0.03 0.03 0.03 0.03 0.04 0.04 0.04 0.03 0.02 0.02 0.02 0.01 0.01 0.02 0.03 0.03 0.03 0.03 0.03 0.04 0.04 0.04 0.04 0.04 0.05 0.06 0.08 0.09 0.09 0.09 0.08
0.01 0.02 0.02 0.02 0.01 0.01 0.01 0.02 0.02 0.02 0.01 0.02 0.02 0.02 0.02 0.03 0.03 0.03 0.03 0.03 0.03 0.03 0.02 0.02 0.02 0.03 0.03 0.03 0.03 0.03 0.03 0.03 0.04 0.04 0.04 0.04 0.04 0.05 0.07 0.08 0.08 0.08 0.09
0.02 0.02 0.02 0.03 0.02 0.01 0.02 0.02 0.02 0.02 0.02 0.02 0.01 0.01 0.02 0.02 0.03 0.03 0.02 0.03 0.03 0.03 0.03 0.03 0.03 0.03 0.04 0.03 0.03 0.03 0.03 0.03 0.04 0.04 0.04 0.04 0.04 0.06 0.08 0.08 0.07 0.07 0.08
0.03 0.03 0.03 0.03 0.03 0.02 0.02 0.02 0.02 0.02 0.02 0.02 0.02 0.02 0.01 0.01 0.02 0.02 0.02 0.02 0.03 0.04 0.04 0.03 0.03 0.03 0.04 0.04 0.04 0.03 0.02 0.02 0.02 0.02 0.02 0.03 0.03 0.05 0.07 0.08 0.07 0.07 0.07
0.04 0.03 0.03 0.03 0.03 0.03 0.02 0.02 0.02 0.02 0.02 0.02 0.03 0.02 0.02 0.02 0.02 0.02 0.02 0.02 0.02 0.03 0.04 0.04 0.04 0.04 0.04 0.04 0.05 0.04 0.03 0.02 0.02 0.02 0.02 0.02 0.03 0.04 0.06 0.07 0.07 0.06 0.07
0.03 0.03 0.03 0.03 0.03 0.02 0.02 0.02 0.02 0.02 0.02 0.02 0.02 0.02 0.02 0.02 0.02 0.02 0.02 0.02 0.03 0.03 0.03 0.03 0.04 0.04 0.05 0.05 0.05 0.04 0.03 0.02 0.02 0.02 0.02 0.02 0.02 0.03 0.05 0.05 0.06 0.06 0.06
0.03 0.03 0.03 0.02 0.02 0.02 0.02 0.02 0.02 0.02 0.02 0.02 0.02 0.02 0.02 0.01 0.02 0.02 0.03 0.03 0.03 0.03 0.03 0.03 0.03 0.04 0.04 0.04 0.04 0.04 0.03 0.03 0.02 0.02 0.02 0.02 0.02 0.03 0.04 0.04 0.04 0.04 0.05
0.02 0.03 0.03 0.02 0.02 0.02 0.01 0.01 0.02 0.02 0.02 0.01 0.01 0.01 0.01 0.02 0.02 0.02 0.02 0.03 0.03 0.04 0.03 0.03 0.03 0.04 0.04 0.04 0.03 0.03 0.03 0.03 0.03 0.02 0.02 0.02 0.02 0.03 0.03 0.03 0.03 0.03 0.03
0.02 0.02 0.03 0.02 0.02 0.02 0.02 0.01 0.01 0.01 0.01 0.01 0.01 0.01 0.02 0.02 0.02 0.02 0.02 0.02 0.03 0.03 0.03 0.02 0.02 0.03 0.03 0.03 0.04 0.03 0.03 0.02 0.03 0.02 0.02 0.02 0.02 0.02 0.03 0.03 0.03 0.03 0.03
0.01 0.01 0.02 0.02 0.02 0.02 0.02 0.01 0.01 0.01 0.01 0.01 0.01 0.02 0.02 0.02 0.02 0.02 0.02 0.02 0.02 0.02 0.02 0.02 0.01 0.02 0.02 0.03 0.03 0.03 0.02 0.02 0.02 0.02 0.02 0.02 0.02 0.02 0.03 0.03 0.03 0.04 0.04
0.01 0.01 0.01 0.01 0.01 0.01 0.01 0.01 0.01 0.01 0.02 0.02 0.02 0.02 0.02 0.02 0.02 0.03 0.03 0.02 0.02 0.02 0.01 0.01 0.01 0.01 0.02 0.02 0.04 0.04 0.02 0.02 0.02 0.02 0.02 0.02 0.02 0.02 0.02 0.02 0.03 0.04 0.04
0.00 0.00 0.00 0.00 0.00 0.00 0.00 0.01 0.01 0.01 0.01 0.02 0.02 0.03 0.03 0.02 0.02 0.02 0.02 0.03 0.02 0.02 0.02 0.02 0.02 0.02 0.02 0.03 0.04 0.05 0.04 0.02 0.02 0.01 0.01 0.02 0.02 0.02 0.02 0.02 0.03 0.03 0.04
0.00 0.00 0.00 0.00 0.00 0.00 0.00 0.00 0.01 0.01 0.01 0.01 0.02 0.02 0.02 0.02 0.02 0.02 0.02 0.02 0.02 0.02 0.02 0.02 0.02 0.02 0.02 0.03 0.03 0.05 0.05 0.03 0.02 0.02 0.02 0.02 0.02 0.02 0.03 0.03 0.03 0.03 0.03
0.00 0.00 0.00 0.00 0.00 0.00 0.00 0.00 0.01 0.01 0.01 0.01 0.01 0.01 0.01 0.02 0.02 0.02 0.02 0.02 0.01 0.01 0.01 0.01 0.01 0.02 0.02 0.03 0.03 0.04 0.05 0.04 0.02 0.02 0.02 0.02 0.02 0.03 0.03 0.03 0.03 0.03 0.03
0.01 0.00 0.00 0.00 0.00 0.00 0.00 0.00 0.00 0.01 0.01 0.01 0.01 0.01 0.01 0.01 0.02 0.02 0.02 0.01 0.01 0.01 0.01 0.01 0.01 0.01 0.02 0.02 0.03 0.04 0.05 0.04 0.03 0.03 0.02 0.02 0.03 0.03 0.03 0.03 0.03 0.03 0.03
0.01 0.01 0.01 0.00 0.00 0.01 0.01 0.01 0.01 0.01 0.01 0.01 0.01 0.01 0.01 0.01 0.01 0.01 0.01 0.01 0.01 0.01 0.01 0.01 0.01 0.01 0.01 0.02 0.03 0.03 0.04 0.04 0.03 0.03 0.02 0.02 0.03 0.03 0.03 0.03 0.03 0.03 0.03
0.01 0.01 0.01 0.01 0.01 0.01 0.01 0.01 0.01 0.01 0.01 0.01 0.01 0.02 0.02 0.02 0.02 0.01 0.01 0.01 0.01 0.01 0.01 0.01 0.01 0.01 0.02 0.02 0.03 0.03 0.04 0.04 0.04 0.03 0.03 0.03 0.03 0.03 0.03 0.03 0.03 0.03 0.03
0.02 0.02 0.02 0.02 0.02 0.02 0.02 0.02 0.02 0.02 0.02 0.02 0.02 0.02 0.03 0.02 0.02 0.02 0.02 0.02 0.02 0.02 0.02 0.02 0.02 0.02 0.02 0.03 0.03 0.03 0.04 0.04 0.04 0.04 0.03 0.03 0.04 0.04 0.04 0.03 0.03 0.03 0.03
0.02 0.02 0.02 0.02 0.02 0.02 0.02 0.02 0.02 0.02 0.02 0.02 0.02 0.02 0.03 0.03 0.02 0.03 0.03 0.03 0.03 0.03 0.03 0.03 0.03 0.03 0.03 0.03 0.04 0.04 0.04 0.04 0.04 0.04 0.04 0.04 0.04 0.04 0.04 0.04 0.03 0.03 0.03
0.02 0.03 0.03 0.03 0.03 0.03 0.03 0.03 0.03 0.03 0.03 0.03 0.03 0.03 0.03 0.03 0.03 0.03 0.03 0.03 0.03 0.03 0.03 0.03 0.03 0.03 0.03 0.03 0.03 0.04 0.04 0.03 0.04 0.04 0.04 0.04 0.04 0.04 0.04 0.04 0.04 0.04 0.04
0.02 0.02 0.02 0.02 0.03 0.03 0.03 0.03 0.03 0.03 0.03 0.03 0.03 0.03 0.03 0.03 0.03 0.03 0.03 0.03 0.03 0.03 0.03 0.03 0.03 0.03 0.03 0.03 0.03 0.03 0.03 0.03 0.03 0.04 0.04 0.04 0.04 0.04 0.04 0.04 0.04 0.04 0.04
0.02 0.02 0.02 0.02 0.02 0.02 0.02 0.03 0.03 0.03 0.03 0.03 0.03 0.03 0.03 0.02 0.02 0.02 0.02 0.02 0.02 0.02 0.02 0.02 0.02 0.02 0.02 0.02 0.02 0.02 0.02 0.03 0.03 0.03 0.04 0.04 0.04 0.04 0.04 0.04 0.04 0.04 0.04
MSLP
1025.51 1026.19 1026.88 1027.54 1028.15 1028.68 1029.15 1029.55 1029.89 1030.21 1030.52 1030.83 1031.16 1031.51 1031.87 1032.24 1032.58 1032.90 1033.16 1033.36 1033.49 1033.55 1033.55 1033.50 1033.42 1033.33 1033.27 1033.25 1033.29 1033.41 1033.59 1033.83 1034.09 1034.34 1034.55 1034.67 1034.69 1034.59 1034.38 1034.07 1033.70 1033.30 1032.91
1025.96 1026.67 1027.37 1028.04 1028.65 1029.18 1029.65 1030.05 1030.40 1030.72 1031.03 1031.34 1031.67 1032.00 1032.35 1032.70 1033.04 1033.35 1033.64 1033.87 1034.04 1034.15 1034.20 1034.19 1034.15 1034.08 1034.01 1033.98 1034.00 1034.07 1034.21 1034.41 1034.63 1034.85 1035.03 1035.14 1035.15 1035.06 1034.86 1034.57 1034.21 1033.83 1033.44
1026.37 1027.12 1027.84 1028.52 1029.13 1029.67 1030.13 1030.54 1030.90 1031.23 1031.54 1031.84 1032.14 1032.45 1032.77 1033.09 1033.40 1033.71 1033.99 1034.24 1034.45 1034.61 1034.71 1034.75 1034.75 1034.72 1034.67 1034.64 1034.64 1034.68 1034.77 1034.92 1035.09 1035.27 1035.42 1035.51 1035.52 1035.43 1035.25 1034.98 1034.65 1034.30 1033.93
1026.72 1027.51 1028.25 1028.93 1029.54 1030.08 1030.56 1030.98 1031.35 1031.69 1032.01 1032.31 1032.60 1032.88 1033.16 1033.44 1033.72 1034.00 1034.27 1034.53 1034.76 1034.95 1035.09 1035.19 1035.23 1035.24 1035.21 1035.18 1035.16 1035.17 1035.21 1035.30 1035.42 1035.54 1035.65 1035.72 1035.73 1035.66 1035.51 1035.29 1035.01 1034.70 1034.37
1027.01 1027.81 1028.56 1029.24 1029.85 1030.40 1030.89 1031.33 1031.74 1032.10 1032.44 1032.75 1033.04 1033.30 1033.55 1033.80 1034.04 1034.28 1034.52 1034.77 1035.00 1035.21 1035.38 1035.51 1035.59 1035.62 1035.61 1035.57 1035.53 1035.50 1035.49 1035.51 1035.56 1035.63 1035.70 1035.75 1035.76 1035.72 1035.62 1035.46 1035.25 1035.01 1034.75
1027.21 1028.02 1028.76 1029.43 1030.04 1030.60 1031.12 1031.60 1032.04 1032.45 1032.83 1033.17 1033.47 1033.73 1033.96 1034.17 1034.37 1034.57 1034.77 1034.99 1035.20 1035.41 1035.59 1035.74 1035.83 1035.87 1035.86 1035.80 1035.73 1035.64 1035.57 1035.53 1035.51 1035.53 1035.56 1035.59 1035.61 1035.61 1035.57 1035.49 1035.37 1035.21 1035.04
1027.35 1028.14 1028.86 1029.52 1030.13 1030.71 1031.25 1031.78 1032.28 1032.75 1033.18 1033.56 1033.88 1034.15 1034.37 1034.55 1034.71 1034.86 1035.02 1035.20 1035.38 1035.56 1035.73 1035.86 1035.95 1035.99 1035.96 1035.88 1035.76 1035.63 1035.49 1035.38 1035.30 1035.26 1035.25 1035.27 1035.30 1035.34 1035.36 1035.37 1035.35 1035.30 1035.22
1027.43 1028.20 1028.91 1029.55 1030.16 1030.76 1031.34 1031.91 1032.47 1033.00 1033.49 1033.91 1034.27 1034.55 1034.76 1034.91 1035.03 1035.14 1035.25 1035.37 1035.51 1035.66 1035.80 1035.91 1035.98 1035.99 1035.94 1035.83 1035.67 1035.49 1035.30 1035.12 1034.98 1034.88 1034.84 1034.84 1034.88 1034.95 1035.04 1035.13 1035.20 1035.26 1035.28
1027.49 1028.24 1028.93 1029.57 1030.19 1030.80 1031.42 1032.04 1032.65 1033.23 1033.76 1034.23 1034.60 1034.89 1035.09 1035.22 1035.30 1035.37 1035.43 1035.51 1035.60 1035.70 1035.81 1035.89 1035.94 1035.93 1035.86 1035.72 1035.53 1035.31 1035.07 1034.84 1034.65 1034.50 1034.41 1034.39 1034.42 1034.51 1034.63 1034.78 1034.94 1035.08 1035.19
1027.55 1028.29 1028.97 1029.61 1030.24 1030.88 1031.53 1032.18 1032.83 1033.44 1034.00 1034.48 1034.86 1035.14 1035.32 1035.43 1035.49 1035.51 1035.54 1035.58 1035.64 1035.71 1035.79 1035.85 1035.88 1035.86 1035.78 1035.63 1035.42 1035.17 1034.90 1034.63 1034.39 1034.19 1034.05 1033.99 1033.99 1034.07 1034.20 1034.37 1034.57 1034.78 1034.97
1027.62 1028.36 1029.05 1029.71 1030.36 1031.02 1031.69 1032.36 1033.02 1033.64 1034.20 1034.67 1035.03 1035.29 1035.45 1035.53 1035.56 1035.57 1035.58 1035.60 1035.65 1035.71 1035.79 1035.85 1035.88 1035.86 1035.78 1035.63 1035.42 1035.16 1034.87 1034.57 1034.29 1034.03 1033.84 1033.71 1033.65 1033.67 1033.77 1033.93 1034.13 1034.36 1034.60
1027.71 1028.47 1029.18 1029.86 1030.53 1031.21 1031.89 1032.57 1033.22 1033.82 1034.35 1034.78 1035.11 1035.33 1035.47 1035.53 1035.56 1035.57 1035.58 1035.61 1035.68 1035.76 1035.85 1035.93 1035.98 1035.99 1035.93 1035.80 1035.60 1035.34 1035.04 1034.72 1034.39 1034.07 1033.80 1033.58 1033.44 1033.37 1033.39 1033.48 1033.64 1033.86 1034.11
1027.81 1028.59 1029.33 1030.04 1030.75 1031.44 1032.13 1032.80 1033.42 1033.97 1034.45 1034.83 1035.11 1035.30 1035.41 1035.48 1035.51 1035.54 1035.59 1035.67 1035.77 1035.90 1036.03 1036.15 1036.24 1036.28 1036.26 1036.16 1035.98 1035.73 1035.43 1035.08 1034.70 1034.32 1033.96 1033.63 1033.37 1033.18 1033.07 1033.06 1033.14 1033.30 1033.53
1027.92 1028.72 1029.49 1030.24 1030.98 1031.69 1032.38 1033.02 1033.60 1034.11 1034.53 1034.85 1035.09 1035.25 1035.35 1035.42 1035.49 1035.56 1035.67 1035.81 1035.98 1036.17 1036.36 1036.54 1036.68 1036.76 1036.77 1036.70 1036.54 1036.31 1036.00 1035.62 1035.20 1034.75 1034.28 1033.84 1033.44 1033.10 1032.85 1032.71 1032.67 1032.74 1032.92
1028.04 1028.86 1029.66 1030.44 1031.20 1031.93 1032.62 1033.24 1033.79 1034.25 1034.62 1034.90 1035.10 1035.24 1035.34 1035.44 1035.55 1035.69 1035.87 1036.09 1036.33 1036.59 1036.85 1037.07 1037.25 1037.37 1037.41 1037.37 1037.23 1037.00 1036.68 1036.29 1035.82 1035.30 1034.74 1034.18 1033.64 1033.15 1032.75 1032.45 1032.28 1032.24 1032.34
1028.19 1029.02 1029.84 1030.65 1031.44 1032.19 1032.87 1033.49 1034.01 1034.44 1034.77 1035.01 1035.20 1035.33 1035.46 1035.60 1035.76 1035.97 1036.22 1036.51 1036.82 1037.14 1037.44 1037.70 1037.91 1038.05 1038.11 1038.08 1037.95 1037.72 1037.40 1036.98 1036.48 1035.90 1035.26 1034.60 1033.93 1033.31 1032.76 1032.32 1032.02 1031.87 1031.88
1028.42 1029.24 1030.08 1030.90 1031.71 1032.47 1033.17 1033.78 1034.29 1034.70 1035.02 1035.25 1035.43 1035.58 1035.73 1035.91 1036.13 1036.39 1036.70 1037.04 1037.39 1037.74 1038.06 1038.34 1038.55 1038.68 1038.74 1038.71 1038.58 1038.35 1038.03 1037.60 1037.08 1036.47 1035.78 1035.04 1034.29 1033.56 1032.90 1032.34 1031.92 1031.66 1031.59
1028.75 1029.56 1030.39 1031.23 1032.05 1032.83 1033.54 1034.16 1034.67 1035.08 1035.40 1035.63 1035.82 1035.99 1036.16 1036.37 1036.62 1036.91 1037.24 1037.60 1037.96 1038.31 1038.61 1038.87 1039.06 1039.17 1039.21 1039.16 1039.03 1038.80 1038.48 1038.07 1037.55 1036.93 1036.23 1035.47 1034.67 1033.88 1033.14 1032.50 1031.99 1031.65 1031.50
1029.22 1030.00 1030.83 1031.67 1032.50 1033.29 1034.01 1034.64 1035.16 1035.57 1035.90 1036.14 1036.34 1036.51 1036.70 1036.92 1037.17 1037.46 1037.78 1038.12 1038.45 1038.75 1039.01 1039.21 1039.36 1039.43 1039.43 1039.36 1039.22 1039.01 1038.71 1038.32 1037.84 1037.25 1036.57 1035.82 1035.02 1034.22 1033.45 1032.77 1032.22 1031.83 1031.62
1029.83 1030.59 1031.39 1032.22 1033.05 1033.85 1034.57 1035.21 1035.73 1036.16 1036.48 1036.73 1036.93 1037.10 1037.28 1037.47 1037.70 1037.96 1038.23 1038.51 1038.77 1039.00 1039.19 1039.32 1039.39 1039.41 1039.38 1039.29 1039.15 1038.95 1038.68 1038.34 1037.91 1037.38 1036.76 1036.07 1035.31 1034.54 1033.80 1033.12 1032.56 1032.15 1031.92
1030.56 1031.29 1032.07 1032.88 1033.70 1034.48 1035.20 1035.83 1036.35 1036.77 1037.09 1037.32 1037.51 1037.66 1037.80 1037.96 1038.13 1038.32 1038.52 1038.71 1038.88 1039.02 1039.12 1039.17 1039.17 1039.13 1039.06 1038.95 1038.81 1038.63 1038.41 1038.12 1037.76 1037.32 1036.78 1036.17 1035.50 1034.80 1034.12 1033.48 1032.95 1032.56 1032.32
1031.36 1032.06 1032.82 1033.60 1034.39 1035.14 1035.83 1036.44 1036.94 1037.33 1037.63 1037.84 1038.00 1038.11 1038.21 1038.31 1038.41 1038.51 1038.62 1038.72 1038.79 1038.83 1038.83 1038.80 1038.73 1038.64 1038.53 1038.41 1038.27 1038.11 1037.93 1037.70 1037.42 1037.07 1036.63 1036.12 1035.56 1034.96 1034.36 1033.81 1033.34 1032.98 1032.78
1032.18 1032.85 1033.56 1034.31 1035.04 1035.75 1036.40 1036.96 1037.42 1037.78 1038.04 1038.22 1038.33 1038.40 1038.44 1038.47 1038.50 1038.52 1038.54 1038.54 1038.52 1038.47 1038.39 1038.28 1038.16 1038.02 1037.87 1037.73 1037.59 1037.45 1037.31 1037.13 1036.92 1036.64 1036.31 1035.91 1035.46 1034.98 1034.49 1034.04 1033.66 1033.38 1033.22
1032.96 1033.59 1034.26 1034.94 1035.62 1036.26 1036.84 1037.34 1037.75 1038.06 1038.27 1038.41 1038.48 1038.50 1038.49 1038.46 1038.42 1038.37 1038.31 1038.24 1038.14 1038.02 1037.87 1037.71 1037.53 1037.35 1037.17 1037.00 1036.85 1036.72 1036.59 1036.45 1036.28 1036.09 1035.84 1035.55 1035.22 1034.86 1034.50 1034.17 1033.89 1033.70 1033.60
1033.66 1034.25 1034.85 1035.47 1036.06 1036.63 1037.13 1037.56 1037.91 1038.16 1038.33 1038.43 1038.46 1038.44 1038.39 1038.31 1038.23 1038.13 1038.01 1037.88 1037.73 1037.55 1037.35 1037.14 1036.91 1036.69 1036.47 1036.28 1036.10 1035.95 1035.81 1035.69 1035.56 1035.41 1035.24 1035.05 1034.83 1034.60 1034.37 1034.17 1034.01 1033.92 1033.91
1034.28 1034.81 1035.35 1035.88 1036.39 1036.86 1037.28 1037.64 1037.92 1038.12 1038.25 1038.31 1038.31 1038.26 1038.18 1038.08 1037.96 1037.83 1037.68 1037.51 1037.32 1037.10 1036.86 1036.60 1036.33 1036.06 1035.80 1035.56 1035.34 1035.15 1035.00 1034.86 1034.74 1034.63 1034.53 1034.42 1034.31 1034.21 1034.12 1034.05 1034.02 1034.04 1034.12
Thickness
5444 5445 5445 5444 5443 5443 5443 5442 5440 5438 5437 5435 5433 5432 5431 5429 5428 5427 5425 5424 5423 5422 5421 5421 5420 5419 5418 5418 5418 5417 5417 5418 5421 5425 5424 5424 5425 5426 5428 5430 5432 5434 5436
5432 5433 5433 5432 5431 5431 5430 5429 5428 5426 5424 5422 5420 5419 5418 5416 5415 5413 5412 5412 5411 5410 5409 5408 5408 5407 5407 5406 5406 5406 5405 5406 5407 5410 5411 5410 5411 5412 5414 5416 5418 5420 5422
5421 5420 5420 5419 5418 5418 5417 5416 5415 5413 5411 5409 5407 5405 5404 5402 5401 5400 5399 5399 5399 5399 5398 5397 5397 5395 5395 5394 5394 5394 5394 5394 5394 5395 5398 5397 5397 5398 5399 5402 5404 5405 5408
5408 5408 5407 5406 5405 5404 5404 5403 5402 5401 5399 5396 5394 5392 5391 5390 5389 5388 5387 5387 5387 5387 5386 5386 5385 5384 5384 5383 5382 5382 5382 5381 5381 5381 5383 5384 5383 5383 5384 5386 5389 5391 5394
5395 5394 5394 5393 5392 5391 5390 5389 5388 5387 5385 5383 5381 5380 5379 5378 5377 5377 5376 5375 5375 5375 5374 5374 5374 5373 5373 5372 5371 5371 5370 5370 5369 5369 5370 5370 5370 5369 5370 5371 5374 5377 5380
5381 5381 5381 5380 5379 5378 5377 5376 5374 5373 5371 5369 5368 5367 5366 5365 5365 5365 5365 5364 5364 5363 5363 5363 5362 5362 5361 5360 5360 5361 5360 5359 5359 5359 5359 5359 5360 5359 5358 5358 5359 5361 5366
5367 5367 5366 5366 5365 5364 5363 5361 5360 5359 5358 5357 5355 5354 5353 5352 5353 5353 5353 5352 5352 5352 5351 5351 5351 5350 5349 5348 5348 5349 5348 5348 5348 5348 5348 5348 5348 5347 5346 5346 5347 5348 5351
5354 5354 5353 5352 5351 5351 5349 5348 5347 5346 5345 5344 5343 5341 5341 5340 5340 5341 5340 5340 5340 5340 5339 5339 5339 5339 5337 5337 5337 5337 5336 5336 5337 5337 5337 5337 5337 5336 5335 5335 5335 5335 5337
5341 5340 5340 5339 5338 5337 5336 5335 5334 5333 5332 5331 5330 5329 5328 5328 5328 5328 5328 5329 5329 5328 5328 5328 5328 5327 5327 5326 5326 5326 5326 5326 5325 5325 5325 5325 5325 5324 5322 5321 5320 5320 5322
5326 5326 5326 5326 5325 5324 5323 5321 5320 5320 5320 5319 5318 5317 5316 5316 5317 5317 5317 5317 5317 5317 5317 5317 5317 5316 5316 5315 5314 5314 5315 5315 5313 5313 5313 5313 5312 5311 5310 5308 5308 5306 5307
5312 5312 5312 5312 5311 5311 5309 5308 5307 5307 5306 5305 5305 5305 5304 5304 5305 5305 5305 5305 5305 5306 5305 5305 5305 5304 5304 5304 5304 5303 5303 5302 5301 5300 5300 5299 5298 5298 5297 5295 5294 5294 5293
5298 5298 5298 5298 5297 5297 5296 5295 5294 5293 5293 5293 5292 5292 5292 5292 5293 5293 5293 5293 5293 5293 5293 5293 5293 5293 5293 5292 5291 5291 5290 5288 5287 5287 5287 5286 5286 5285 5285 5283 5282 5281 5282
5283 5283 5283 5284 5284 5283 5282 5282 5281 5280 5280 5280 5279 5280 5280 5280 5280 5280 5281 5281 5281 5280 5280 5280 5281 5280 5280 5279 5278 5277 5276 5275 5274 5274 5275 5275 5274 5273 5272 5271 5270 5269 5269
5269 5270 5270 5270 5271 5270 5269 5269 5268 5268 5268 5268 5268 5268 5268 5267 5268 5268 5269 5268 5268 5268 5267 5267 5267 5267 5266 5265 5264 5263 5262 5262 5261 5262 5263 5262 5261 5261 5260 5259 5258 5257 5256
5257 5256 5256 5256 5256 5256 5256 5256 5256 5258 5257 5258 5258 5257 5257 5257 5258 5259 5258 5258 5257 5256 5254 5254 5253 5252 5251 5250 5250 5249 5249 5248 5248 5249 5248 5249 5249 5249 5248 5247 5245 5244 5244
5244 5244 5243 5242 5243 5243 5243 5244 5245 5246 5247 5247 5248 5247 5247 5248 5248 5248 5247 5246 5245 5243 5241 5239 5239 5239 5238 5238 5237 5237 5236 5236 5236 5236 5236 5236 5236 5236 5236 5234 5233 5232 5233
5230 5230 5230 5230 5230 5230 5231 5232 5233 5235 5235 5235 5235 5235 5236 5236 5236 5235 5234 5233 5231 5229 5225 5225 5225 5224 5225 5225 5224 5224 5224 5224 5223 5224 5224 5225 5224 5224 5223 5223 5222 5221 5221
5217 5218 5218 5218 5218 5219 5219 5219 5220 5220 5221 5222 5222 5222 5223 5223 5223 5222 5221 5218 5215 5213 5211 5210 5211 5211 5211 5211 5212 5211 5211 5212 5212 5213 5214 5214 5213 5213 5212 5212 5212 5210 5210
5207 5207 5207 5207 5207 5208 5208 5208 5207 5207 5208 5208 5209 5209 5209 5209 5209 5207 5205 5202 5201 5200 5199 5198 5198 5198 5199 5199 5199 5200 5200 5201 5202 5203 5203 5203 5202 5202 5202 5203 5202 5201 5200
5197 5197 5197 5197 5197 5197 5197 5197 5196 5196 5196 5197 5197 5197 5197 5195 5194 5193 5191 5190 5188 5188 5187 5187 5187 5187 5187 5187 5188 5189 5189 5191 5192 5193 5193 5193 5192 5192 5193 5193 5192 5192 5191
5187 5186 5186 5185 5184 5185 5185 5186 5186 5185 5185 5185 5186 5186 5187 5185 5183 5181 5180 5179 5178 5177 5177 5177 5177 5177 5177 5177 5178 5179 5180 5182 5183 5184 5184 5183 5183 5184 5184 5184 5184 5183 5182
5176 5175 5175 5174 5174 5174 5174 5174 5174 5174 5174 5173 5174 5173 5174 5172 5171 5169 5169 5168 5167 5167 5167 5167 5168 5168 5168 5168 5168 5169 5171 5173 5175 5176 5176 5175 5175 5176 5176 5176 5175 5175 5173
5166 5165 5165 5164 5164 5164 5164 5163 5163 5164 5163 5163 5162 5162 5161 5160 5160 5159 5158 5158 5158 5157 5158 5158 5158 5159 5159 5160 5160 5161 5163 5165 5167 5167 5167 5168 5168 5168 5168 5169 5169 5168 5167
5156 5155 5154 5154 5154 5154 5154 5154 5153 5153 5153 5152 5152 5151 5151 5150 5150 5149 5149 5148 5148 5149 5149 5149 5149 5151 5152 5152 5153 5155 5157 5158 5159 5160 5160 5161 5161 5162 5162 5162 5161 5161 5160
5145 5145 5145 5145 5144 5144 5144 5144 5144 5143 5143 5143 5142 5142 5141 5141 5140 5140 5140 5140 5140 5140 5140 5141 5141 5142 5144 5145 5147 5148 5150 5151 5152 5153 5154 5154 5155 5155 5155 5155 5155 5154 5154
5135 5135 5136 5135 5135 5134 5134 5134 5135 5134 5134 5134 5134 5133 5132 5132 5132 5132 5131 5131 5131 5132 5132 5133 5134 5134 5136 5138 5140 5142 5144 5146 5147 5148 5148 5149 5149 5149 5149 5149 5149 5148 5148